Location: Seattle
(47.6060°N, 122.3310°W)
Time: 23:56:50
(UTC-07:00)

ISS - Visible Passes

Search period start: 26 March 2015 00:00
Search period end: 05 April 2015 00:00
Orbit: 396 x 406 km, 51.6° (Epoch: 26 March)

Date Brightness Start Highest point End Pass type
(mag) Time Alt. Az. Time Alt. Az. Time Alt. Az.
26 Mar -1.3 04:26:45 29° NE 04:26:45 29° NE 04:28:46 10° ENE visible
26 Mar -3.4 05:59:20 12° WNW 06:02:21 88° NE 06:05:34 10° ESE visible
27 Mar -3.0 05:08:11 43° NW 05:08:59 61° NNE 05:12:12 10° E visible
28 Mar -1.1 04:17:07 25° ENE 04:17:07 25° ENE 04:18:42 10° E visible
28 Mar -3.2 05:49:42 17° WNW 05:52:01 51° SSW 05:55:10 10° SE visible
29 Mar -3.5 04:58:46 82° SSE 04:58:46 82° SSE 05:01:55 10° ESE visible
30 Mar -0.5 04:07:59 14° ESE 04:07:59 14° ESE 04:08:29 10° ESE visible
30 Mar -2.3 05:40:36 23° WSW 05:41:29 27° SW 05:44:15 10° SSE visible
31 Mar -1.4 04:50:03 20° SSE 04:50:03 20° SSE 04:51:16 10° SE visible
01 Apr -0.9 05:32:25 10° SSW 05:32:25 10° SSW 05:32:28 10° S visible
03 Apr -0.7 21:57:34 10° SW 21:57:57 13° SW 21:57:57 13° SW visible
04 Apr -2.6 21:04:19 10° SSW 21:07:16 32° SE 21:07:42 31° SE visible
04 Apr -0.1 22:40:19 10° W 22:40:20 10° W 22:40:20 10° W visible
